[[{"header":{"parameterUnit":"m.s-1","parameterCategory":2,"la1":30.2991,"la2":30.254,"lo1":-89.0895,"lo2":-89.0444,"dy":0.0017,"dx":0.0017,"nx":28,"ny":28,"refTime":"2025-05-28T21:00:00:Z","depth":"0","parameterNumber":2,"parameterNumberName":"U-component_of_CURRENTS"},"data":[0,0,0,0,0,0,0,0,0,0,0,0,0,0,0,0,0,0,0,0,0,0,0,0,0,0,0,0,0,0,0,0,0,0,0,0,0,0,0,0,0,0,0,0,0,0,0,0,0,0,0,0,0,0,0,0,0,0,-0.4401,-0.4403,0,-0.4565,-0.4567,-0.4568,-0.4569,-0.4568,-0.4566,-0.4564,-0.4486,-0.4486,-0.4485,0,0,0,0,0,0,0,0,0,0,0,0,0,-0.3801,-0.3814,-0.4401,-0.4403,-0.4405,-0.4565,-0.4567,-0.4569,-0.457,-0.4567,-0.4565,-0.4563,-0.4486,-0.4486,-0.4485,0,0,0,0,0,0,0,0,0,0,0,0,0,-0.4021,-0.3818,-0.44,-0.4428,-0.4432,-0.4565,-0.4567,-0.4569,-0.457,-0.4567,-0.4565,-0.4562,-0.4486,-0.4486,-0.4485,-0.4536,0,0,-0.4483,-0.4483,0,0,0,0,0,0,0,0,-0.4009,-0.4043,-0.4421,-0.4426,-0.4431,-0.4547,-0.4327,-0.4547,-0.4571,-0.4514,-0.4564,-0.4561,-0.4488,-0.4487,-0.4523,-0.4532,-0.4529,-0.4483,-0.4483,-0.4483,-0.4483,0,0,0,0,0,0,0,-0.3994,-0.4034,-0.4462,-0.4424,-0.443,-0.4333,-0.4364,-0.4368,-0.4507,-0.4519,-0.452,-0.4545,-0.4488,-0.4524,-0.452,-0.4527,-0.4483,-0.4483,-0.4482,-0.4482,-0.4504,-0.4505,0,0,0,0,0,0,-0.4002,-0.4023,-0.4457,-0.4468,-0.4213,-0.4348,-0.4382,-0.451,-0.4512,-0.4513,-0.4547,-0.4544,-0.4526,-0.4521,-0.4517,-0.4531,-0.4483,-0.4482,-0.4482,-0.4504,-0.4505,-0.4506,0,0,0,0,0,0,-0.399,-0.4043,-0.4451,-0.4242,-0.4288,-0.4364,-0.4505,-0.4514,-0.4545,-0.4537,-0.4532,-0.4567,-0.4524,-0.4518,-0.4517,-0.4528,-0.4482,-0.4481,-0.4502,-0.4504,-0.4505,-0.4585,0,0,0,0,0,0,-0.3974,-0.4041,-0.4114,-0.4249,-0.4301,-0.4527,-0.4509,-0.452,-0.4566,-0.4564,-0.4553,-0.4544,-0.4521,-0.4518,-0.4516,-0.4527,-0.4481,-0.4501,-0.4503,-0.4505,-0.4582,-0.4589,-0.4596,0,0,0,0,0,-0.3954,-0.4071,-0.412,-0.4169,-0.4413,-0.4529,-0.4547,-0.4582,-0.4569,-0.4595,-0.4581,-0.4543,-0.4527,-0.452,-0.4517,-0.4527,-0.45,-0.4503,-0.4505,-0.4578,-0.4588,-0.4596,0,0,0,0,0,0,-0.3822,-0.4087,-0.4142,-0.4329,-0.4419,-0.453,-0.4557,-0.459,-0.461,-0.4588,-0.4569,-0.4561,-0.4569,-0.4539,-0.4531,-0.4537,-0.4503,-0.4505,-0.456,-0.4568,-0.4575,-0.4526,-0.448,0,0,0,0,0,-0.3844,-0.4004,-0.4193,-0.4316,-0.4381,-0.447,-0.4514,-0.4549,-0.4594,-0.4602,-0.4606,-0.4588,-0.4583,-0.4565,-0.4567,-0.4572,-0.4488,-0.4572,-0.4579,-0.4586,-0.4543,-0.4429,-0.442,-0.4513,-0.4513,-0.4513,0,0,-0.3788,-0.3975,-0.4041,-0.4295,-0.4368,-0.4467,-0.4489,-0.4567,-0.4609,-0.4586,-0.4625,-0.4626,-0.4596,-0.4609,-0.4605,-0.4576,-0.4527,-0.4588,-0.4594,-0.4547,-0.443,-0.442,-0.4411,-0.4514,-0.4514,-0.4514,0,0,-0.3775,-0.3968,-0.409,-0.4206,-0.4366,-0.4437,-0.4465,-0.4599,-0.4619,-0.4683,-0.466,-0.4654,-0.4684,-0.4645,-0.463,-0.4671,-0.4584,-0.4687,-0.4665,-0.4557,-0.4547,-0.4537,-0.446,-0.4443,-0.4672,-0.4672,-0.4672,0,-0.3698,-0.3935,-0.411,-0.4261,-0.4328,-0.443,-0.4508,-0.4571,-0.4668,-0.465,-0.4693,-0.4686,-0.469,-0.4633,-0.467,-0.4683,-0.4615,-0.464,-0.4562,-0.4551,-0.4539,-0.4462,-0.4441,-0.4676,-0.4676,-0.4675,-0.4675,0,-0.3764,-0.3962,-0.4033,-0.4279,-0.4355,-0.4446,-0.4568,-0.4609,-0.4654,-0.4688,-0.4679,-0.4703,-0.4665,-0.47,-0.4713,-0.4633,-0.4614,-0.46,-0.4534,-0.4533,-0.4454,-0.4431,-0.4682,-0.4681,-0.4679,-0.4678,0,0,-0.3603,-0.4007,-0.4028,-0.4148,-0.4381,-0.444,-0.4507,-0.4571,-0.4558,-0.4645,-0.4608,-0.4653,-0.4638,-0.4618,-0.4623,-0.4561,-0.4483,-0.4557,-0.455,-0.447,-0.4254,-0.4115,-0.4076,-0.4452,-0.4448,-0.4444,-0.4246,0,-0.3597,-0.3871,-0.4048,-0.4203,-0.4352,-0.4453,-0.4494,-0.4536,-0.4577,-0.4575,-0.4562,-0.4556,-0.4613,-0.4601,-0.4548,-0.4515,-0.4418,-0.4537,-0.4273,-0.4264,-0.413,-0.4042,-0.3929,-0.373,-0.4223,-0.4219,-0.4216,0,-0.3599,-0.382,-0.3997,-0.4233,-0.428,-0.4339,-0.4368,-0.4423,-0.4429,-0.4448,-0.4418,-0.4432,-0.4385,-0.4435,-0.4298,-0.4374,-0.4297,-0.4263,-0.4253,-0.4059,-0.4078,-0.3801,-0.3668,-0.3664,-0.418,-0.4183,-0.4185,0,-0.3415,-0.3751,-0.3881,-0.3979,-0.4251,-0.4256,-0.4318,-0.435,-0.4359,-0.4347,-0.4347,-0.4285,-0.427,-0.4171,-0.4147,-0.4206,-0.3976,-0.4034,-0.3809,-0.3801,-0.3611,-0.3592,-0.3415,-0.3841,-0.3841,-0.3842,-0.3842,0,-0.338,-0.3486,-0.3817,-0.3909,-0.3947,-0.4156,-0.4124,-0.4166,-0.4225,-0.4196,-0.4257,-0.4212,-0.4202,-0.4108,-0.4063,-0.3855,-0.3881,-0.3747,-0.3705,-0.3644,-0.363,-0.3542,-0.3601,-0.3834,-0.3836,-0.3837,-0.3839,0,-0.3166,-0.3417,-0.3571,-0.3841,-0.3893,-0.3891,-0.4019,-0.4011,-0.4108,-0.408,-0.4079,-0.4125,-0.4,-0.3951,-0.3791,-0.3723,-0.3481,-0.3454,-0.3403,-0.3354,-0.3149,-0.3218,-0.2937,-0.2847,-0.3168,-0.3163,-0.3158,0,-0.3098,-0.3187,-0.3423,-0.3461,-0.358,-0.3652,-0.3684,-0.387,-0.3917,-0.4001,-0.3986,-0.3906,-0.3773,-0.3519,-0.3382,-0.3175,-0.3226,-0.2957,-0.3022,-0.3051,-0.31,-0.3173,-0.3126,-0.2839,-0.2832,-0.2827,-0.2822,0,-0.2935,-0.2989,-0.3094,-0.3184,-0.3251,-0.3331,-0.3453,-0.3506,-0.3717,-0.3696,-0.3668,-0.3566,-0.3383,-0.3126,-0.291,-0.2794,-0.2906,-0.2834,-0.2855,-0.2778,-0.2849,-0.2773,-0.3111,-0.2774,-0.2779,-0.2782,-0.2785,-0.2787,-0.2721,-0.2702,-0.2821,-0.2853,-0.293,-0.3025,-0.2999,-0.3145,-0.3162,-0.3114,-0.3288,-0.3045,-0.299,-0.2659,-0.2536,-0.2366,-0.2475,-0.2333,-0.2405,-0.2469,-0.2386,-0.2615,-0.2239,-0.2241,-0.2242,-0.2243,-0.2245,0,-0.2495,-0.2494,-0.2499,-0.257,-0.2539,-0.2698,-0.2828,-0.2753,-0.265,-0.2619,-0.2515,-0.2497,-0.23,-0.2259,-0.2143,-0.2016,-0.201,-0.1988,-0.2105,-0.2066,-0.2231,-0.2222,-0.1834,-0.1834,-0.1834,-0.1834,-0.1835,-0.1835,-0.2383,-0.2303,-0.2307,-0.2192,-0.2221,-0.2188,-0.2212,-0.2063,-0.1998,-0.1746,-0.1671,-0.1653,-0.189,-0.2156,-0.2033,-0.1923,-0.1919,-0.1837,-0.1874,-0.2081,-0.2123,-0.2163,-0.2166,-0.1773,-0.1773,-0.1651,-0.1651,-0.1651]},{"header":{"parameterUnit":"m.s-1","parameterCategory":2,"la1":30.2991,"la2":30.254,"lo1":-89.0895,"lo2":-89.0444,"dy":0.0017,"dx":0.0017,"nx":28,"ny":28,"refTime":"2025-05-28T21:00:00:Z","depth":"0","parameterNumber":3,"parameterNumberName":"V-component_of_CURRENTS"},"data":[0,0,0,0,0,0,0,0,0,0,0,0,0,0,0,0,0,0,0,0,0,0,0,0,0,0,0,0,0,0,0,0,0,0,0,0,0,0,0,0,0,0,0,0,0,0,0,0,0,0,0,0,0,0,0,0,0,0,-0.0629,-0.0628,0,-0.0557,-0.0557,-0.0557,-0.0484,-0.0482,-0.0481,-0.0479,-0.0323,-0.032,-0.0318,0,0,0,0,0,0,0,0,0,0,0,0,0,-0.0615,-0.0617,-0.0629,-0.0628,-0.0627,-0.0557,-0.0557,-0.0556,-0.0484,-0.0482,-0.048,-0.0479,-0.0324,-0.0321,-0.0317,0,0,0,0,0,0,0,0,0,0,0,0,0,-0.0595,-0.0617,-0.063,-0.0578,-0.0573,-0.0558,-0.0557,-0.0556,-0.0484,-0.0482,-0.048,-0.0478,-0.0325,-0.0321,-0.0317,-0.0334,0,0,-0.0304,-0.0302,0,0,0,0,0,0,0,0,-0.0597,-0.0597,-0.0587,-0.0582,-0.0575,-0.0523,-0.0494,-0.0476,-0.0485,-0.0523,-0.0479,-0.0477,-0.038,-0.0371,-0.0371,-0.0327,-0.032,-0.0304,-0.0301,-0.0299,-0.0298,0,0,0,0,0,0,0,-0.0598,-0.0599,-0.0606,-0.0586,-0.0579,-0.0528,-0.0524,-0.0491,-0.0467,-0.052,-0.0513,-0.0498,-0.0377,-0.0376,-0.0367,-0.0318,-0.0304,-0.03,-0.0297,-0.0296,-0.0249,-0.025,0,0,0,0,0,0,-0.0604,-0.0601,-0.0608,-0.0603,-0.0575,-0.053,-0.0526,-0.0546,-0.0469,-0.0455,-0.0499,-0.0494,-0.0384,-0.0372,-0.0361,-0.0344,-0.0299,-0.0295,-0.0293,-0.0248,-0.0249,-0.025,0,0,0,0,0,0,-0.0605,-0.0607,-0.0611,-0.0593,-0.059,-0.0533,-0.0556,-0.0546,-0.0532,-0.0454,-0.0438,-0.0494,-0.0382,-0.0367,-0.0353,-0.0338,-0.0293,-0.029,-0.0246,-0.0248,-0.025,-0.0331,0,0,0,0,0,0,-0.0606,-0.0609,-0.0635,-0.0596,-0.0591,-0.0608,-0.0557,-0.0546,-0.0524,-0.0517,-0.0444,-0.0428,-0.0379,-0.036,-0.0349,-0.0331,-0.0286,-0.0244,-0.0247,-0.0249,-0.0327,-0.0335,-0.0343,0,0,0,0,0,-0.0606,-0.0655,-0.0638,-0.0638,-0.0627,-0.0609,-0.0603,-0.0556,-0.0526,-0.0534,-0.0499,-0.043,-0.0365,-0.0359,-0.0345,-0.0326,-0.0243,-0.0246,-0.0249,-0.0323,-0.0334,-0.0343,0,0,0,0,0,0,-0.0659,-0.065,-0.0631,-0.0674,-0.0642,-0.0594,-0.0598,-0.0563,-0.0544,-0.0534,-0.0462,-0.0446,-0.0422,-0.038,-0.0374,-0.0322,-0.0286,-0.0287,-0.0347,-0.0356,-0.0364,-0.0362,-0.0283,0,0,0,0,0,-0.0685,-0.0719,-0.0683,-0.0712,-0.0703,-0.0652,-0.0639,-0.0605,-0.0574,-0.0562,-0.0514,-0.0465,-0.0428,-0.0399,-0.0366,-0.0348,-0.0258,-0.0323,-0.0331,-0.0338,-0.033,-0.0202,-0.0197,-0.026,-0.026,-0.026,0,0,-0.0703,-0.0707,-0.0721,-0.0724,-0.0698,-0.0711,-0.0641,-0.0627,-0.0628,-0.0549,-0.0549,-0.0497,-0.0435,-0.0416,-0.0398,-0.0372,-0.0276,-0.0342,-0.0348,-0.0335,-0.0204,-0.0198,-0.0192,-0.0262,-0.0261,-0.0261,0,0,-0.0772,-0.077,-0.0824,-0.0815,-0.0787,-0.0752,-0.0749,-0.0707,-0.0678,-0.0681,-0.0612,-0.0556,-0.0526,-0.0454,-0.042,-0.0453,-0.0331,-0.0443,-0.0467,-0.0345,-0.0337,-0.0329,-0.0209,-0.019,-0.0437,-0.0437,-0.0437,0,-0.0796,-0.0871,-0.0829,-0.0878,-0.0871,-0.0778,-0.0815,-0.0781,-0.0738,-0.0704,-0.0696,-0.0597,-0.0538,-0.0467,-0.048,-0.0463,-0.0382,-0.0434,-0.0351,-0.0342,-0.0332,-0.021,-0.0188,-0.0441,-0.0441,-0.0441,-0.044,0,-0.0897,-0.0961,-0.0987,-0.1021,-0.0999,-0.1017,-0.0951,-0.0923,-0.0875,-0.0821,-0.0753,-0.0678,-0.06,-0.0573,-0.0542,-0.0442,-0.0403,-0.0381,-0.0319,-0.033,-0.0202,-0.0177,-0.0448,-0.0446,-0.0445,-0.0444,0,0,-0.095,-0.1048,-0.1057,-0.1099,-0.108,-0.1066,-0.1054,-0.1,-0.0954,-0.0903,-0.0846,-0.0769,-0.0679,-0.0635,-0.0553,-0.045,-0.0314,-0.0398,-0.039,-0.0267,-0.0039,0.0056,0.0094,-0.0277,-0.0273,-0.0271,0.0024,0,-0.1046,-0.1195,-0.1185,-0.1266,-0.1329,-0.1231,-0.1214,-0.1134,-0.1047,-0.0967,-0.0839,-0.0758,-0.0714,-0.0652,-0.0549,-0.0365,-0.0254,-0.0396,-0.0057,-0.0047,0.0051,0.0124,0.0169,0.0442,0.0049,0.0053,0.0056,0,-0.1142,-0.1243,-0.1374,-0.1406,-0.1407,-0.1416,-0.1318,-0.1286,-0.1131,-0.1056,-0.0934,-0.0812,-0.0641,-0.0615,-0.0299,-0.0393,-0.023,-0.0096,-0.008,0.0059,0.0096,0.0388,0.0503,0.0678,0.0096,0.0093,0.009,0,-0.1214,-0.1343,-0.1455,-0.148,-0.1506,-0.1499,-0.1462,-0.1322,-0.1241,-0.1087,-0.0985,-0.08,-0.0648,-0.0452,-0.0161,-0.022,0.0194,0.0157,0.0397,0.0405,0.0539,0.0554,0.0879,0.0377,0.0377,0.0376,0.0375,0,-0.1321,-0.14,-0.1511,-0.1578,-0.1618,-0.1592,-0.154,-0.1462,-0.1318,-0.1157,-0.1026,-0.0832,-0.0594,-0.032,-0.0132,0.0245,0.0239,0.043,0.0504,0.0509,0.0517,0.075,0.0787,0.0387,0.0384,0.0382,0.038,0,-0.1368,-0.1465,-0.1581,-0.1663,-0.1669,-0.1682,-0.1587,-0.1529,-0.1391,-0.1174,-0.1109,-0.081,-0.0437,-0.0182,0.0204,0.0347,0.0792,0.0773,0.0763,0.083,0.116,0.1187,0.1613,0.1749,0.107,0.1074,0.1078,0,-0.1411,-0.1504,-0.1621,-0.1665,-0.1706,-0.1715,-0.1686,-0.1577,-0.1471,-0.1098,-0.0982,-0.0596,-0.0252,0.0302,0.0596,0.0956,0.1057,0.12,0.1089,0.1234,0.132,0.1338,0.1419,0.1237,0.1242,0.1245,0.1248,0,-0.1472,-0.151,-0.1595,-0.1706,-0.1733,-0.1722,-0.1669,-0.1565,-0.134,-0.1059,-0.0622,-0.0325,0.016,0.0605,0.0997,0.1195,0.1339,0.129,0.1465,0.1515,0.1537,0.1682,0.0974,0.1283,0.1279,0.1277,0.1275,0.1273,-0.1464,-0.1524,-0.1639,-0.171,-0.1745,-0.1696,-0.1576,-0.1422,-0.112,-0.0607,-0.0342,0.0221,0.0596,0.1158,0.1375,0.1756,0.1677,0.1848,0.1885,0.1901,0.1997,0.1364,0.1728,0.1727,0.1727,0.1726,0.1726,0,-0.1466,-0.1541,-0.1628,-0.1711,-0.173,-0.1739,-0.153,-0.1321,-0.0867,-0.0391,0.0116,0.086,0.1313,0.1627,0.2074,0.2311,0.2338,0.2426,0.2446,0.2511,0.1996,0.1964,0.2368,0.2368,0.2368,0.2367,0.2367,0.2367,-0.1472,-0.1563,-0.1621,-0.1679,-0.1711,-0.1558,-0.1376,-0.1005,-0.061,0.019,0.077,0.1156,0.1613,0.2317,0.276,0.2804,0.3006,0.2999,0.3122,0.2712,0.2659,0.2608,0.2591,0.312,0.3121,0.3625,0.3629,0.3633]}],[{"header":{"parameterUnit":"m.s-1","parameterCategory":2,"la1":30.2991,"la2":30.254,"lo1":-89.0895,"lo2":-89.0444,"dy":0.0017,"dx":0.0017,"nx":28,"ny":28,"refTime":"2025-05-28T21:00:00:Z","depth":"2","parameterNumber":2,"parameterNumberName":"U-component_of_CURRENTS"},"data":[0,0,0,0,0,0,0,0,0,0,0,0,0,0,0,0,0,0,0,0,0,0,0,0,0,0,0,0,0,0,0,0,0,0,0,0,0,0,0,0,0,0,0,0,0,0,0,0,0,0,0,0,0,0,0,0,0,0,-0.2991,-0.2991,0,-0.3043,-0.3043,-0.3043,-0.3026,-0.3025,-0.3024,-0.3023,-0.3074,-0.3077,-0.3079,0,0,0,0,0,0,0,0,0,0,0,0,0,-0.2934,-0.2935,-0.2991,-0.2991,-0.2992,-0.3042,-0.3043,-0.3044,-0.3026,-0.3025,-0.3024,-0.3022,-0.3074,-0.3076,-0.3079,0,0,0,0,0,0,0,0,0,0,0,0,0,-0.2968,-0.2935,-0.299,-0.2991,-0.2991,-0.3042,-0.3043,-0.3044,-0.3026,-0.3025,-0.3023,-0.3022,-0.3073,-0.3076,-0.3079,-0.3131,0,0,-0.309,-0.3091,0,0,0,0,0,0,0,0,-0.2966,-0.297,-0.299,-0.2991,-0.2991,-0.3027,-0.3042,-0.3073,-0.3027,-0.3011,-0.3023,-0.3021,-0.3061,-0.3065,-0.3076,-0.3133,-0.3135,-0.309,-0.3092,-0.3094,-0.3095,0,0,0,0,0,0,0,-0.2964,-0.2968,-0.301,-0.2991,-0.2992,-0.3008,-0.3011,-0.3048,-0.3043,-0.3013,-0.3012,-0.302,-0.3061,-0.3073,-0.3077,-0.3136,-0.309,-0.3093,-0.3095,-0.3097,-0.323,-0.3232,0,0,0,0,0,0,-0.2959,-0.2966,-0.3008,-0.3011,-0.2977,-0.301,-0.3013,-0.3016,-0.3042,-0.3045,-0.3022,-0.302,-0.3068,-0.3073,-0.3079,-0.3105,-0.3094,-0.3097,-0.3099,-0.3229,-0.3231,-0.3232,0,0,0,0,0,0,-0.2958,-0.2962,-0.3006,-0.2991,-0.2998,-0.3012,-0.3017,-0.3018,-0.3032,-0.305,-0.3052,-0.3034,-0.3067,-0.3074,-0.3103,-0.3108,-0.3099,-0.3102,-0.3227,-0.3229,-0.3231,-0.318,0,0,0,0,0,0,-0.2956,-0.2961,-0.2965,-0.2991,-0.2999,-0.3027,-0.3018,-0.302,-0.304,-0.3037,-0.3061,-0.3064,-0.3066,-0.3097,-0.3106,-0.3112,-0.3104,-0.3225,-0.3228,-0.3231,-0.318,-0.318,-0.318,0,0,0,0,0,-0.2954,-0.2967,-0.2965,-0.297,-0.3002,-0.3028,-0.3033,-0.3038,-0.3042,-0.3046,-0.3059,-0.3063,-0.3121,-0.3101,-0.3111,-0.3118,-0.3224,-0.3227,-0.323,-0.3179,-0.318,-0.318,0,0,0,0,0,0,-0.2946,-0.2967,-0.2965,-0.2984,-0.2999,-0.3025,-0.3037,-0.3048,-0.3065,-0.3067,-0.3079,-0.3083,-0.3106,-0.3136,-0.3113,-0.317,-0.3176,-0.3182,-0.3134,-0.3135,-0.3135,-0.3149,-0.3107,0,0,0,0,0,-0.2947,-0.2958,-0.2979,-0.2992,-0.3001,-0.3023,-0.3038,-0.3044,-0.3064,-0.307,-0.3088,-0.3115,-0.3132,-0.3149,-0.317,-0.3211,-0.321,-0.3228,-0.3228,-0.3228,-0.325,-0.3231,-0.323,-0.3243,-0.3243,-0.3243,0,0,-0.2948,-0.2961,-0.2968,-0.299,-0.3005,-0.3027,-0.3027,-0.3052,-0.3071,-0.3077,-0.3108,-0.3114,-0.3143,-0.3165,-0.3182,-0.3188,-0.3222,-0.3232,-0.3231,-0.3254,-0.3234,-0.3233,-0.3231,-0.3245,-0.3245,-0.3244,0,0,-0.2956,-0.2967,-0.2977,-0.2996,-0.3021,-0.3037,-0.3046,-0.3076,-0.3084,-0.3116,-0.3117,-0.3125,-0.3175,-0.3178,-0.319,-0.322,-0.3216,-0.3239,-0.3256,-0.3237,-0.3234,-0.3233,-0.3205,-0.3202,-0.3246,-0.3246,-0.3246,0,-0.2952,-0.297,-0.2985,-0.3004,-0.3024,-0.3043,-0.3065,-0.3084,-0.3119,-0.3134,-0.312,-0.3169,-0.3177,-0.3201,-0.3204,-0.3215,-0.3208,-0.3239,-0.3232,-0.323,-0.3229,-0.3202,-0.3199,-0.3244,-0.3244,-0.3244,-0.3245,0,-0.2969,-0.2986,-0.2998,-0.3024,-0.305,-0.3072,-0.3102,-0.3126,-0.3141,-0.3157,-0.3179,-0.3176,-0.3207,-0.3205,-0.3213,-0.3224,-0.322,-0.3218,-0.3216,-0.3224,-0.3196,-0.3193,-0.3241,-0.3242,-0.3242,-0.3243,0,0,-0.2931,-0.2995,-0.2994,-0.3016,-0.3063,-0.3086,-0.3126,-0.3162,-0.3193,-0.3199,-0.3227,-0.323,-0.323,-0.3247,-0.3245,-0.3233,-0.3195,-0.3232,-0.3232,-0.3181,-0.3148,-0.3046,-0.3033,-0.3185,-0.3185,-0.3185,-0.3121,0,-0.2928,-0.2968,-0.3006,-0.3048,-0.3071,-0.3116,-0.3156,-0.3197,-0.3221,-0.3254,-0.3244,-0.3267,-0.3247,-0.3254,-0.3236,-0.3217,-0.3191,-0.3213,-0.3174,-0.3173,-0.306,-0.3028,-0.2798,-0.2714,-0.3118,-0.3118,-0.3118,0,-0.2911,-0.2946,-0.2988,-0.3065,-0.3081,-0.3115,-0.3184,-0.3225,-0.3278,-0.3298,-0.3312,-0.3316,-0.3312,-0.3284,-0.3235,-0.3252,-0.3207,-0.3175,-0.3171,-0.31,-0.3065,-0.2782,-0.2694,-0.3113,-0.3113,-0.3113,-0.3114,0,-0.2856,-0.2925,-0.296,-0.2985,-0.3078,-0.311,-0.316,-0.323,-0.3265,-0.3325,-0.3339,-0.3348,-0.3329,-0.3294,-0.3227,-0.3238,-0.3156,-0.3156,-0.3016,-0.3008,-0.282,-0.2795,-0.311,-0.311,-0.311,-0.311,-0.311,0,-0.2825,-0.2847,-0.2939,-0.2959,-0.3008,-0.3088,-0.3144,-0.32,-0.3272,-0.3288,-0.335,-0.3335,-0.3329,-0.3282,-0.3237,-0.3104,-0.3153,-0.3013,-0.2982,-0.2795,-0.277,-0.3137,-0.3142,-0.3108,-0.3108,-0.3109,-0.3109,0,-0.2742,-0.2808,-0.2846,-0.2947,-0.298,-0.301,-0.3117,-0.3147,-0.3238,-0.3255,-0.327,-0.3312,-0.3247,-0.3221,-0.3149,-0.308,-0.2995,-0.2934,-0.2713,-0.2656,-0.2862,-0.2865,-0.278,-0.2776,-0.2772,-0.2769,-0.2767,0,-0.2696,-0.2709,-0.2808,-0.2824,-0.2864,-0.2933,-0.2969,-0.3099,-0.3124,-0.3205,-0.3183,-0.3176,-0.3095,-0.2978,-0.2871,-0.2759,-0.2871,-0.2503,-0.2479,-0.2849,-0.2827,-0.2836,-0.2843,-0.2202,-0.2195,-0.2189,-0.2184,0,-0.2589,-0.2626,-0.2656,-0.2696,-0.2735,-0.2785,-0.2846,-0.2862,-0.298,-0.3001,-0.297,-0.2926,-0.2825,-0.2599,-0.2494,-0.2408,-0.2512,-0.2383,-0.2801,-0.233,-0.23,-0.2281,-0.2307,-0.2134,-0.2139,-0.2143,-0.2145,-0.2147,-0.248,-0.2469,-0.2502,-0.2521,-0.2568,-0.257,-0.2519,-0.2597,-0.2601,-0.2553,-0.2664,-0.2513,-0.248,-0.2171,-0.2062,-0.199,-0.2162,-0.2074,-0.2093,-0.2117,-0.2071,-0.2037,-0.1812,-0.1815,-0.1818,-0.182,-0.1822,0,-0.2313,-0.2313,-0.2319,-0.2317,-0.227,-0.2369,-0.2367,-0.2268,-0.2174,-0.2218,-0.2163,-0.1908,-0.1762,-0.1753,-0.1548,-0.1521,-0.152,-0.1476,-0.1472,-0.1522,-0.1566,-0.1494,-0.1081,-0.1079,-0.1077,-0.1076,0,0,-0.2223,-0.2154,-0.2152,-0.2001,-0.1989,-0.1828,-0.1764,-0.1689,-0.1656,-0.1547,-0.149,-0.1602,-0.1646,-0.1342,-0.1291,-0.1148,-0.132,-0.1089,-0.1676,-0.1716,-0.1758,-0.1896,-0.1839,0,0,0,0,0]},{"header":{"parameterUnit":"m.s-1","parameterCategory":2,"la1":30.2991,"la2":30.254,"lo1":-89.0895,"lo2":-89.0444,"dy":0.0017,"dx":0.0017,"nx":28,"ny":28,"refTime":"2025-05-28T21:00:00:Z","depth":"2","parameterNumber":3,"parameterNumberName":"V-component_of_CURRENTS"},"data":[0,0,0,0,0,0,0,0,0,0,0,0,0,0,0,0,0,0,0,0,0,0,0,0,0,0,0,0,0,0,0,0,0,0,0,0,0,0,0,0,0,0,0,0,0,0,0,0,0,0,0,0,0,0,0,0,0,0,-0.0365,-0.0364,0,-0.0242,-0.024,-0.0238,-0.0146,-0.0145,-0.0144,-0.0144,0.0065,0.0069,0.0074,0,0,0,0,0,0,0,0,0,0,0,0,0,-0.0423,-0.0423,-0.0365,-0.0364,-0.0362,-0.0242,-0.024,-0.0238,-0.0146,-0.0145,-0.0144,-0.0144,0.0063,0.0069,0.0075,0,0,0,0,0,0,0,0,0,0,0,0,0,-0.0356,-0.0423,-0.0365,-0.0304,-0.0297,-0.0242,-0.024,-0.0238,-0.0146,-0.0145,-0.0144,-0.0143,0.0061,0.0068,0.0076,0.0105,0,0,0.0099,0.0102,0,0,0,0,0,0,0,0,-0.036,-0.0354,-0.0314,-0.0308,-0.0301,-0.0211,-0.0184,-0.012,-0.0146,-0.02,-0.0144,-0.0143,-0.0022,-0.0008,0.0016,0.0115,0.0124,0.0099,0.0104,0.0107,0.0109,0,0,0,0,0,0,0,-0.0365,-0.0358,-0.0313,-0.0313,-0.0305,-0.025,-0.024,-0.0171,-0.0114,-0.0195,-0.0189,-0.0181,-0.0017,0.0009,0.0022,0.0127,0.0099,0.0106,0.011,0.0113,0.0303,0.0303,0,0,0,0,0,0,-0.0392,-0.0363,-0.0317,-0.031,-0.0332,-0.025,-0.0239,-0.0238,-0.0116,-0.0098,-0.0181,-0.0177,-0.0004,0.0013,0.003,0.0082,0.0107,0.0114,0.0118,0.0302,0.0303,0.0304,0,0,0,0,0,0,-0.0394,-0.039,-0.0322,-0.0335,-0.0323,-0.0251,-0.025,-0.0236,-0.0211,-0.0107,-0.0086,-0.0172,-0.0003,0.0019,0.0091,0.009,0.0118,0.0124,0.0302,0.0303,0.0303,0.0179,0,0,0,0,0,0,-0.0397,-0.0392,-0.0401,-0.0338,-0.0324,-0.0299,-0.0251,-0.0234,-0.0209,-0.0201,-0.0092,-0.0071,-0.0001,0.0079,0.0098,0.0101,0.013,0.0301,0.0302,0.0303,0.0182,0.0175,0.0169,0,0,0,0,0,-0.0399,-0.0419,-0.0402,-0.0396,-0.0339,-0.03,-0.0288,-0.023,-0.021,-0.0204,-0.0127,-0.0075,0.01,0.0085,0.0108,0.0113,0.0301,0.0302,0.0303,0.0185,0.0177,0.017,0,0,0,0,0,0,-0.0451,-0.041,-0.039,-0.0397,-0.0357,-0.0286,-0.0279,-0.0242,-0.0179,-0.0171,-0.0072,-0.0046,0.0016,0.0084,0.0066,0.0173,0.021,0.0216,0.0113,0.0106,0.01,0.0084,0.0137,0,0,0,0,0,-0.0469,-0.0474,-0.042,-0.0428,-0.0413,-0.0349,-0.0328,-0.0291,-0.0228,-0.02,-0.0124,-0.0037,0.0039,0.0085,0.0159,0.0216,0.0277,0.0237,0.0231,0.0224,0.0229,0.0306,0.0306,0.0307,0.0307,0.0307,0,0,-0.0494,-0.0472,-0.0475,-0.0439,-0.0404,-0.0386,-0.0334,-0.0311,-0.0288,-0.0187,-0.0134,-0.0062,0.0047,0.011,0.0145,0.0167,0.0256,0.0226,0.0219,0.0228,0.0307,0.0307,0.0306,0.0308,0.0308,0.0308,0,0,-0.0542,-0.0525,-0.054,-0.051,-0.0469,-0.0426,-0.0426,-0.0361,-0.0322,-0.0267,-0.0188,-0.012,-0.0004,0.0072,0.0127,0.0133,0.0212,0.0158,0.012,0.0192,0.0192,0.0193,0.0259,0.0267,0.0161,0.0161,0.0161,0,-0.0572,-0.0581,-0.0538,-0.0537,-0.0518,-0.0451,-0.0452,-0.0404,-0.0322,-0.0287,-0.0265,-0.0097,-0.0019,0.0073,0.0074,0.0116,0.0169,0.0132,0.0181,0.0183,0.0186,0.0254,0.0264,0.0155,0.0156,0.0156,0.0157,0,-0.0624,-0.0624,-0.0631,-0.0606,-0.0579,-0.0574,-0.0504,-0.0471,-0.0421,-0.0361,-0.0274,-0.0168,-0.0065,-0.0033,0.0024,0.0088,0.0121,0.0152,0.0189,0.0177,0.0251,0.0263,0.0147,0.0149,0.0151,0.0152,0,0,-0.0702,-0.0675,-0.0676,-0.0673,-0.0616,-0.0602,-0.0563,-0.0503,-0.0474,-0.0389,-0.0337,-0.0217,-0.0161,-0.0094,-0.0015,0.0051,0.0104,0.0101,0.0107,0.0145,0.0262,0.0292,0.0309,0.0137,0.0138,0.014,0.0299,0,-0.0753,-0.0781,-0.0739,-0.0748,-0.0753,-0.0675,-0.0644,-0.0578,-0.0504,-0.0436,-0.032,-0.0244,-0.0181,-0.0141,-0.0065,0.0068,0.0134,0.0058,0.0287,0.0294,0.0305,0.0324,0.0274,0.0413,0.0312,0.0314,0.0316,0,-0.0813,-0.0822,-0.0854,-0.0819,-0.0812,-0.0803,-0.0741,-0.07,-0.0582,-0.0522,-0.0422,-0.0325,-0.0204,-0.0163,0.0055,0.0003,0.0119,0.0217,0.0226,0.031,0.0348,0.0415,0.0441,0.0338,0.0336,0.0334,0.0333,0,-0.0903,-0.0893,-0.0928,-0.0919,-0.0873,-0.0866,-0.0834,-0.0736,-0.0695,-0.058,-0.0532,-0.0374,-0.0284,-0.0126,0.0082,0.0068,0.0319,0.033,0.0471,0.0474,0.0508,0.0512,0.0475,0.0475,0.0475,0.0474,0.0474,0,-0.0978,-0.0996,-0.0978,-0.1001,-0.1029,-0.0956,-0.0953,-0.0893,-0.0792,-0.0734,-0.0591,-0.0502,-0.0271,-0.0093,0.0073,0.032,0.032,0.0475,0.0523,0.0464,0.0461,0.0459,0.0455,0.048,0.0479,0.0478,0.0477,0,-0.1072,-0.106,-0.1098,-0.1082,-0.108,-0.1104,-0.1051,-0.1031,-0.0926,-0.0843,-0.0809,-0.0585,-0.0348,-0.0108,0.0176,0.0319,0.0537,0.0621,0.0533,0.0567,0.0642,0.063,0.0789,0.0792,0.0794,0.0796,0.0797,0,-0.1122,-0.1158,-0.1187,-0.122,-0.1221,-0.1232,-0.1229,-0.1128,-0.1081,-0.0881,-0.0838,-0.0594,-0.0398,0.0026,0.031,0.0614,0.0618,0.0741,0.0708,0.0647,0.0677,0.0662,0.0647,0.0705,0.0705,0.0706,0.0706,0,-0.1211,-0.1228,-0.1265,-0.1346,-0.1372,-0.138,-0.1353,-0.1333,-0.1178,-0.1076,-0.0878,-0.0708,-0.0284,0.0053,0.0443,0.0611,0.0683,0.0761,0.0748,0.0622,0.0577,0.0603,0.059,0.0711,0.071,0.071,0.071,0.0709,-0.1268,-0.1328,-0.1385,-0.1452,-0.1488,-0.1496,-0.1488,-0.1416,-0.1328,-0.113,-0.0941,-0.0641,-0.0305,0.0252,0.0521,0.0774,0.0772,0.083,0.0825,0.0819,0.0771,0.0731,0.0884,0.0885,0.0885,0.0885,0.0886,0,-0.132,-0.1388,-0.1474,-0.1539,-0.158,-0.1573,-0.1536,-0.1472,-0.136,-0.1161,-0.0948,-0.0526,-0.0137,0.0222,0.0622,0.0852,0.0823,0.0887,0.0799,0.0794,0.0789,0.0735,0.0842,0.0842,0.0843,0.0843,0,0,-0.1348,-0.1445,-0.1495,-0.1585,-0.1624,-0.1625,-0.1596,-0.1489,-0.1328,-0.1112,-0.0877,-0.0585,-0.012,0.0152,0.0442,0.0655,0.0656,0.0669,0.0678,0.0532,0.0525,0.0731,0.0639,0,0,0,0,0]}],[{"header":{"parameterUnit":"m.s-1","parameterCategory":2,"la1":30.2991,"la2":30.254,"lo1":-89.0895,"lo2":-89.0444,"dy":0.0017,"dx":0.0017,"nx":28,"ny":28,"refTime":"2025-05-28T21:00:00:Z","depth":"4","parameterNumber":2,"parameterNumberName":"U-component_of_CURRENTS"},"data":[0,0,0,0,0,0,0,0,0,0,0,0,0,0,0,0,0,0,0,0,0,0,0,0,0,0,0,0,0,0,0,0,0,0,0,0,0,0,0,0,0,0,0,0,0,0,0,0,0,0,0,0,0,0,0,0,0,0,-0.2076,-0.2076,0,-0.2112,-0.2112,-0.2112,-0.2126,-0.2126,-0.2126,-0.2126,-0.2161,-0.2162,-0.2162,0,0,0,0,0,0,0,0,0,0,0,0,0,-0.202,-0.2021,-0.2076,-0.2076,-0.2077,-0.2112,-0.2112,-0.2112,-0.2126,-0.2126,-0.2126,-0.2127,-0.2161,-0.2162,-0.2162,0,0,0,0,0,0,0,0,0,0,0,0,0,-0.2046,-0.2021,-0.2076,-0.209,-0.2092,-0.2112,-0.2112,-0.2112,-0.2126,-0.2126,-0.2126,-0.2127,-0.216,-0.2161,-0.2163,-0.2164,0,0,-0.2166,-0.2167,0,0,0,0,0,0,0,0,-0.2044,-0.2048,-0.2088,-0.209,-0.2092,-0.2117,-0.2105,-0.2131,-0.2126,-0.211,-0.2126,-0.2127,-0.2148,-0.215,-0.2152,-0.2166,-0.2167,-0.2166,-0.2167,-0.2167,-0.2168,0,0,0,0,0,0,0,-0.2043,-0.2046,-0.2087,-0.2088,-0.2091,-0.2096,-0.21,-0.211,-0.2125,-0.2111,-0.2113,-0.2122,-0.2149,-0.2151,-0.2153,-0.2168,-0.2166,-0.2167,-0.2168,-0.2168,-0.2236,-0.2237,0,0,0,0,0,0,-0.2044,-0.2044,-0.2086,-0.2088,-0.2072,-0.2097,-0.2101,-0.2106,-0.2125,-0.2129,-0.2122,-0.2123,-0.2149,-0.2152,-0.2154,-0.2221,-0.2167,-0.2168,-0.2169,-0.2235,-0.2237,-0.2238,0,0,0,0,0,0,-0.2043,-0.2047,-0.2084,-0.207,-0.2075,-0.2098,-0.2104,-0.2107,-0.2142,-0.2133,-0.2136,-0.2158,-0.2149,-0.2153,-0.2189,-0.222,-0.2169,-0.217,-0.2234,-0.2236,-0.2237,-0.2313,0,0,0,0,0,0,-0.2041,-0.2046,-0.2067,-0.207,-0.2076,-0.2111,-0.2104,-0.2108,-0.2146,-0.2149,-0.2164,-0.2166,-0.215,-0.2188,-0.219,-0.222,-0.2171,-0.2232,-0.2235,-0.2237,-0.2309,-0.2317,-0.2324,0,0,0,0,0,-0.2039,-0.2057,-0.2067,-0.2073,-0.2098,-0.2112,-0.2116,-0.213,-0.2148,-0.2164,-0.218,-0.2167,-0.2202,-0.219,-0.2193,-0.2224,-0.2231,-0.2234,-0.2237,-0.2306,-0.2316,-0.2324,0,0,0,0,0,0,-0.2045,-0.2061,-0.2072,-0.2096,-0.2113,-0.2116,-0.214,-0.2154,-0.218,-0.2195,-0.2187,-0.219,-0.2227,-0.2218,-0.2204,-0.2248,-0.2213,-0.2216,-0.2264,-0.2274,-0.2281,-0.2286,-0.2172,0,0,0,0,0,-0.2057,-0.2077,-0.2089,-0.2114,-0.2125,-0.2143,-0.216,-0.2171,-0.2188,-0.2201,-0.2216,-0.2228,-0.2234,-0.2251,-0.225,-0.2286,-0.2267,-0.2305,-0.2312,-0.2319,-0.2324,-0.2331,-0.234,-0.2246,-0.2246,-0.2246,0,0,-0.2071,-0.2081,-0.2096,-0.2118,-0.2135,-0.2157,-0.2154,-0.2188,-0.2217,-0.2201,-0.2257,-0.2256,-0.2248,-0.2277,-0.2294,-0.228,-0.2333,-0.2322,-0.2328,-0.2329,-0.2334,-0.2343,-0.2352,-0.2248,-0.2248,-0.2247,0,0,-0.209,-0.2116,-0.2134,-0.2152,-0.2183,-0.2192,-0.2212,-0.2238,-0.2263,-0.2307,-0.2299,-0.2324,-0.2346,-0.2343,-0.2343,-0.2395,-0.2367,-0.2398,-0.245,-0.2457,-0.2465,-0.2472,-0.2449,-0.2453,-0.2409,-0.2409,-0.2409,0,-0.2107,-0.2127,-0.2144,-0.2164,-0.2189,-0.2214,-0.2242,-0.2268,-0.2307,-0.2333,-0.2335,-0.2375,-0.2373,-0.2401,-0.2418,-0.2413,-0.2403,-0.2419,-0.2468,-0.2474,-0.2479,-0.2455,-0.2458,-0.2413,-0.2412,-0.2412,-0.2412,0,-0.2124,-0.2158,-0.2174,-0.2207,-0.2237,-0.2267,-0.2301,-0.2344,-0.2383,-0.2403,-0.2454,-0.2454,-0.2474,-0.248,-0.2469,-0.251,-0.2484,-0.2472,-0.2446,-0.2494,-0.2464,-0.2466,-0.2418,-0.2417,-0.2416,-0.2415,0,0,-0.2107,-0.2173,-0.2182,-0.2212,-0.2265,-0.2287,-0.2349,-0.2398,-0.2445,-0.2487,-0.2538,-0.2558,-0.2565,-0.2564,-0.2557,-0.2572,-0.26,-0.2551,-0.2549,-0.253,-0.2602,-0.2419,-0.2403,-0.2604,-0.2605,-0.2606,-0.2562,0,-0.2116,-0.2164,-0.2199,-0.226,-0.2286,-0.2341,-0.2394,-0.245,-0.2496,-0.2552,-0.2573,-0.261,-0.2594,-0.2612,-0.2627,-0.2607,-0.2612,-0.2612,-0.2557,-0.2555,-0.2388,-0.2401,-0.261,-0.2563,-0.2563,-0.2564,-0.2564,0,-0.2104,-0.2143,-0.2205,-0.2287,-0.2307,-0.2357,-0.2449,-0.2499,-0.2576,-0.2614,-0.2659,-0.2671,-0.2703,-0.2683,-0.2678,-0.2683,-0.2651,-0.2631,-0.2629,-0.2433,-0.2375,-0.2507,-0.2567,-0.2567,-0.2567,-0.2567,-0.2566,0,-0.2059,-0.2142,-0.2197,-0.2225,-0.2323,-0.2378,-0.2436,-0.2522,-0.2566,-0.2656,-0.2686,-0.2728,-0.2738,-0.2734,-0.2683,-0.2695,-0.2657,-0.2661,-0.2463,-0.2449,-0.2596,-0.259,-0.2654,-0.2654,-0.2655,-0.2655,-0.2655,0,-0.2024,-0.2072,-0.2191,-0.2219,-0.2295,-0.2372,-0.2455,-0.2521,-0.2605,-0.2629,-0.2712,-0.2707,-0.2755,-0.273,-0.2699,-0.2562,-0.2661,-0.2462,-0.2425,-0.2627,-0.2624,-0.2597,-0.2591,-0.2653,-0.2653,-0.2654,-0.2654,0,-0.1949,-0.2031,-0.2101,-0.2228,-0.2274,-0.2329,-0.2455,-0.2492,-0.2593,-0.2623,-0.2649,-0.2701,-0.2652,-0.2657,-0.2625,-0.2539,-0.246,-0.2387,-0.2581,-0.2557,-0.2251,-0.225,-0.2175,-0.2168,-0.2162,-0.2157,-0.2153,0,-0.1905,-0.1937,-0.2092,-0.2135,-0.2198,-0.2296,-0.2345,-0.247,-0.2489,-0.257,-0.2547,-0.2558,-0.256,-0.2349,-0.2399,-0.2316,-0.2287,-0.2243,-0.2271,-0.223,-0.2203,-0.221,-0.2217,-0.2144,-0.2143,-0.2141,-0.214,0,-0.181,-0.1891,-0.1949,-0.204,-0.2113,-0.2175,-0.2249,-0.2244,-0.2342,-0.2471,-0.2356,-0.2309,-0.2243,-0.22,-0.214,-0.209,-0.2279,-0.2182,-0.2195,-0.2221,-0.2192,-0.2172,-0.2185,-0.2119,-0.2122,-0.2124,-0.2125,0,-0.1737,-0.1756,-0.1842,-0.1899,-0.1991,-0.1986,-0.2059,-0.2043,-0.2076,-0.2162,-0.2113,-0.212,-0.2188,-0.2078,-0.2025,-0.1959,-0.1944,-0.1894,-0.1922,-0.1945,-0.1893,-0.1823,-0.1593,0,0,0,0,0,-0.164,-0.1634,-0.1681,-0.172,-0.1802,-0.1837,-0.1948,-0.2014,-0.2115,-0.1968,-0.2028,-0.1948,-0.1855,-0.1877,-0.1758,-0.195,-0.1971,-0.1809,-0.1935,-0.2008,-0.2031,-0.1992,0,0,0,0,0,0,-0.157,-0.1609,-0.1616,-0.1545,-0.1527,-0.1575,-0.163,-0.1707,-0.1639,-0.1756,-0.1708,-0.1816,-0.1756,-0.186,-0.1702,-0.1713,-0.1751,-0.1845,-0.184,-0.1995,-0.2016,-0.2035,-0.2003,0,0,0,0,0]},{"header":{"parameterUnit":"m.s-1","parameterCategory":2,"la1":30.2991,"la2":30.254,"lo1":-89.0895,"lo2":-89.0444,"dy":0.0017,"dx":0.0017,"nx":28,"ny":28,"refTime":"2025-05-28T21:00:00:Z","depth":"4","parameterNumber":3,"parameterNumberName":"V-component_of_CURRENTS"},"data":[0,0,0,0,0,0,0,0,0,0,0,0,0,0,0,0,0,0,0,0,0,0,0,0,0,0,0,0,0,0,0,0,0,0,0,0,0,0,0,0,0,0,0,0,0,0,0,0,0,0,0,0,0,0,0,0,0,0,-0.026,-0.0259,0,-0.0185,-0.0184,-0.0183,-0.0125,-0.0124,-0.0124,-0.0123,-0.0019,-0.0017,-0.0014,0,0,0,0,0,0,0,0,0,0,0,0,0,-0.0287,-0.0287,-0.026,-0.0259,-0.0258,-0.0185,-0.0184,-0.0182,-0.0125,-0.0124,-0.0124,-0.0123,-0.002,-0.0017,-0.0014,0,0,0,0,0,0,0,0,0,0,0,0,0,-0.0249,-0.0287,-0.026,-0.0221,-0.0217,-0.0185,-0.0184,-0.0182,-0.0125,-0.0124,-0.0123,-0.0123,-0.0021,-0.0017,-0.0014,-0.0004,0,0,-0.0003,-0.0001,0,0,0,0,0,0,0,0,-0.0251,-0.0248,-0.0228,-0.0224,-0.0219,-0.0165,-0.0155,-0.0122,-0.0125,-0.0158,-0.0123,-0.0123,-0.0067,-0.0059,-0.0045,0.0001,0.0005,-0.0003,-0.0,0.0001,0.0002,0,0,0,0,0,0,0,-0.0254,-0.025,-0.0228,-0.0227,-0.0222,-0.0186,-0.018,-0.0148,-0.0115,-0.0155,-0.0151,-0.0146,-0.0064,-0.0048,-0.0042,0.0007,-0.0003,0.0001,0.0003,0.0004,0.0071,0.0071,0,0,0,0,0,0,-0.027,-0.0253,-0.0231,-0.0226,-0.0236,-0.0186,-0.018,-0.0182,-0.0116,-0.0106,-0.0146,-0.0143,-0.0055,-0.0046,-0.0038,-0.0007,0.0001,0.0005,0.0007,0.0072,0.0071,0.0071,0,0,0,0,0,0,-0.0272,-0.027,-0.0234,-0.0238,-0.0232,-0.0187,-0.0189,-0.018,-0.0167,-0.011,-0.0099,-0.0143,-0.0054,-0.0043,-0.0013,-0.0003,0.0006,0.0009,0.0072,0.0072,0.0071,0.0044,0,0,0,0,0,0,-0.0273,-0.0271,-0.028,-0.024,-0.0232,-0.0222,-0.019,-0.018,-0.0165,-0.0161,-0.0103,-0.0092,-0.0053,-0.0019,-0.0009,0.0002,0.0012,0.0073,0.0072,0.0071,0.0045,0.0043,0.004,0,0,0,0,0,-0.0274,-0.029,-0.0281,-0.0278,-0.0246,-0.0222,-0.0215,-0.0179,-0.0166,-0.0165,-0.0125,-0.0094,-0.0016,-0.0016,-0.0005,0.0007,0.0073,0.0072,0.0071,0.0046,0.0043,0.004,0,0,0,0,0,0,-0.0308,-0.0285,-0.0274,-0.0283,-0.0259,-0.0213,-0.0212,-0.0188,-0.0156,-0.0154,-0.0098,-0.0085,-0.0057,-0.0028,-0.0029,0.0022,0.0033,0.0034,0.001,0.0007,0.0005,0.0002,0.0015,0,0,0,0,0,-0.0322,-0.033,-0.0296,-0.0306,-0.0297,-0.0258,-0.0245,-0.0222,-0.0188,-0.0173,-0.0131,-0.009,-0.0052,-0.0026,0.0005,0.0035,0.0072,0.0048,0.0045,0.0043,0.0046,0.0112,0.0117,0.0068,0.0068,0.0068,0,0,-0.0341,-0.0329,-0.0334,-0.0314,-0.0294,-0.0281,-0.0248,-0.0237,-0.022,-0.0168,-0.0137,-0.0102,-0.005,-0.0016,-0.0,0.0013,0.0073,0.0042,0.004,0.0044,0.0112,0.0117,0.0121,0.0068,0.0068,0.0068,0,0,-0.0374,-0.037,-0.0381,-0.0363,-0.0339,-0.0311,-0.0312,-0.0271,-0.0247,-0.0219,-0.0174,-0.0131,-0.0083,-0.0029,0.0002,0.0002,0.0049,0.0003,0.0003,0.0067,0.0072,0.0077,0.012,0.0129,0.0012,0.0012,0.0012,0,-0.0396,-0.0403,-0.038,-0.0379,-0.0367,-0.0328,-0.0328,-0.0297,-0.0249,-0.0225,-0.0218,-0.0125,-0.0082,-0.0016,-0.0014,0.0,0.0032,0.0013,0.0065,0.0071,0.0077,0.012,0.0131,0.0011,0.0011,0.0011,0.0011,0,-0.0428,-0.0431,-0.0437,-0.0422,-0.0405,-0.0404,-0.0358,-0.0338,-0.0309,-0.0266,-0.0211,-0.0147,-0.0087,-0.0067,-0.0037,0.0025,0.0032,0.0048,0.0076,0.008,0.0125,0.0136,0.0009,0.0009,0.001,0.001,0,0,-0.0482,-0.0464,-0.0468,-0.0466,-0.0429,-0.0423,-0.0394,-0.0351,-0.0331,-0.0273,-0.0233,-0.0153,-0.0115,-0.0078,-0.0028,0.0034,0.0101,0.0054,0.0058,0.0102,0.0228,0.0178,0.0186,0.0126,0.0128,0.013,0.024,0,-0.0513,-0.0533,-0.0504,-0.0512,-0.0515,-0.0465,-0.0442,-0.0396,-0.0349,-0.0301,-0.0213,-0.0166,-0.0118,-0.0095,-0.0019,0.0065,0.0131,0.0069,0.0213,0.0217,0.0177,0.0197,0.0136,0.0248,0.0251,0.0253,0.0254,0,-0.0551,-0.0558,-0.0582,-0.0559,-0.0555,-0.0553,-0.0514,-0.0484,-0.0398,-0.0358,-0.0277,-0.0213,-0.0108,-0.0081,0.0093,0.0048,0.0135,0.0204,0.021,0.0183,0.0189,0.0246,0.0276,0.0274,0.0272,0.0271,0.027,0,-0.0613,-0.0607,-0.0635,-0.063,-0.06,-0.0601,-0.0581,-0.0512,-0.0487,-0.0397,-0.0371,-0.0233,-0.0176,-0.004,0.0104,0.0102,0.0283,0.0301,0.0344,0.0341,0.0366,0.036,0.0428,0.0428,0.0427,0.0427,0.0427,0,-0.0657,-0.0676,-0.0676,-0.0695,-0.0727,-0.0671,-0.0681,-0.0637,-0.0566,-0.0534,-0.0413,-0.036,-0.0164,-0.0038,0.0098,0.0247,0.0286,0.0348,0.0371,0.0349,0.0339,0.0374,0.0367,0.0431,0.043,0.0429,0.0429,0,-0.0721,-0.0718,-0.0757,-0.0757,-0.0765,-0.0793,-0.0772,-0.0762,-0.0686,-0.0641,-0.0617,-0.0448,-0.0286,-0.0098,0.0124,0.0222,0.0377,0.0421,0.0369,0.0386,0.0396,0.0386,0.0487,0.0486,0.0486,0.0485,0.0485,0,-0.0751,-0.0782,-0.0835,-0.0877,-0.0889,-0.0914,-0.0926,-0.085,-0.0824,-0.0693,-0.0672,-0.051,-0.0387,-0.011,0.0086,0.0335,0.0368,0.0445,0.0441,0.0392,0.0406,0.0396,0.0386,0.0484,0.0484,0.0484,0.0483,0,-0.081,-0.0845,-0.0884,-0.0983,-0.1027,-0.105,-0.105,-0.1035,-0.0924,-0.0862,-0.0713,-0.0543,-0.0363,-0.0131,0.0054,0.0238,0.0394,0.0439,0.0442,0.0439,0.039,0.0401,0.0393,0.0481,0.0482,0.0482,0.0482,0,-0.086,-0.0918,-0.099,-0.1064,-0.1134,-0.1156,-0.1142,-0.1077,-0.1025,-0.0853,-0.0811,-0.0584,-0.0435,-0.0182,-0.0006,0.0159,0.0208,0.0263,0.0277,0.0281,0.0183,0.0088,0.0112,0,0,0,0,0,-0.0893,-0.0963,-0.1055,-0.113,-0.12,-0.1224,-0.1206,-0.1161,-0.1055,-0.0965,-0.0874,-0.0698,-0.0405,-0.0269,-0.0113,-0.0035,0.0215,0.015,0.028,0.0469,0.0472,0.0386,0,0,0,0,0,0,-0.0918,-0.1018,-0.1065,-0.1164,-0.122,-0.1268,-0.1256,-0.118,-0.1103,-0.0983,-0.0829,-0.069,-0.0415,-0.0511,-0.0125,-0.007,0.0029,0.0304,0.0307,0.0468,0.047,0.0472,0.0385,0,0,0,0,0]}]]